Hourly Weather Roundup
Issued by NWS Central Illinois

Home | Current Version | Previous Version | Text Only | Print | Product List | Glossary On
Versions: 1 2 3 4 5 6 7 8 9 10 11 12 13 14 15 16 17 18 19 20 21 22 23 24 25 26 27 28 29 30 31 32 33 34 35 36 37 38 39 40 41 42 43 44 45 46 47 48 49 50
000
NZUS43 KILX 042210
HWRILX

AREA WEATHER ROUNDUP
NATIONAL WEATHER SERVICE, LINCOLN IL
500 PM CDT WED MAY 04 2016


CITY           SKY/WX    TMP DP  RH WIND       PRES   REMARKS
BLOOMINGTON    PTSUNNY   56  41  57 NW15      29.84R
CHAMPAIGN      CLOUDY    55  41  59 NW21G29   29.82R
DANVILLE       CLOUDY    52  41  65 N18G24    29.78R
DECATUR        CLOUDY    57  40  52 NW16G24   29.84R
EFFINGHAM      CLOUDY    59  42  52 NW16G23   29.83R
FLORA          PTSUNNY   62  41  46 NW16G29   29.81R
GALESBURG      PTSUNNY   60  35  39 N18G24    29.85S
JACKSONVILLE   PTSUNNY   62  34  35 N20G26    29.85S
LACON          PTSUNNY   58  37  44 N13       29.82S
LAWRENCEVILLE  CLOUDY    59  42  53 N21G32    29.78R
LITCHFIELD     SUNNY     60  38  43 N20G28    29.85R
$$


CITY           SKY/WX    TMP DP  RH WIND       PRES   REMARKS
LINCOLN        CLOUDY    58  40  52 N7        29.85R
MACOMB         PTSUNNY   63  33  32 NW18G32   29.88S
MATTOON        CLOUDY    55  39  54 N22G32    29.81R
MT CARMEL AP   CLOUDY    55  46  71 N13       29.79R
OLNEY-NOBLE AP PTSUNNY   59  41  51 NW23G29   29.80R
PARIS          CLOUDY    54  42  63 N12       29.81R
PEORIA         PTSUNNY   62  35  36 NW12G22   29.84S
PONTIAC        PTSUNNY   58  43  58 N16       29.83S
RANTOUL        PTSUNNY   57  42  58 N14G23    29.82R
ROBINSON       PTSUNNY   57  39  51 NW20G26   29.79R
SPRINGFIELD    CLOUDY    61  39  44 N14G24    29.85S
TAYLORVILLE    CLOUDY    58  40  51 NW18G26   29.85R
$$

...REGIONAL REPORTS...


CITY           SKY/WX    TMP DP  RH WIND       PRES   REMARKS
CHICAGO O`HARE CLOUDY    50  38  63 NE7       29.80S
KANKAKEE       CLOUDY    51  37  58 N12       29.82R
MOLINE         MOSUNNY   64  33  31 N17G23    29.83F
MOUNT STERLING MOSUNNY   63  36  37 NW20G25   29.87S
MOUNT VERNON   PTSUNNY   63  43  48 N8        29.82R
PITTSFIELD     MOSUNNY   64  38  39 NW18G26   29.88S
QUINCY         MOSUNNY   62  34  35 NW17G31   29.88F
ROCKFORD       CLOUDY    58  35  42 N14       29.83S
$$


CITY           SKY/WX    TMP DP  RH WIND       PRES   REMARKS
BURLINGTON     SUNNY     63  35  35 N17G25    29.87S
CEDAR RAPIDS   MOSUNNY   65  33  30 N23G33    29.87S
DES MOINES     MOSUNNY   68  30  24 N17G23    29.95S
KIRKSVILLE     MOSUNNY   65  34  31 N17G25    29.93F
OTTUMWA        MOSUNNY   66  32  28 NW24G31   29.90F
ST LOUIS       MOSUNNY   64  38  38 N16G23    29.85R
$$


CITY           SKY/WX    TMP DP  RH WIND       PRES   REMARKS
TERRE HAUTE    CLOUDY    56  42  59 N15       29.79R
EVANSVILLE     PTSUNNY   62  42  47 NW12G25   29.78R
INDIANAPOLIS   PTSUNNY   52  35  52 NW21G30   29.75R
LAFAYETTE      CLOUDY    49  38  65 N14G24    29.79R
MADISON        PTSUNNY   59  31  34 N15G24    29.81S
MILWAUKEE      PTSUNNY   44  36  73 N12       29.82R
$$






USA.gov is the U.S. government's official web portal to all federal, state and local government web resources and services.